| time (UTC) | temp F | wind direction | speed MPH | gust MPH | rain 1hr in | rain 24hr in | rain mn in | humidity % | barometer mb |
| 20260503030540 | 39 | 111 | 0.0 | 0.0 | 0.00 | 0.00 | 0.00 | 72 | 1014.3 |
| 20260503030042 | 39 | 111 | 0.0 | 0.0 | 0.00 | 0.00 | 0.00 | 71 | 1014.3 |
| 20260503025607 | 38 | 111 | 0.0 | 0.0 | 0.00 | 0.00 | 0.00 | 70 | 1014.4 |
| 20260503025133 | 39 | 111 | 0.0 | 0.0 | 0.00 | 0.00 | 0.00 | 70 | 1014.4 |
| 20260503024612 | 39 | 111 | 0.0 | 0.0 | 0.00 | 0.00 | 0.00 | 71 | 1014.4 |
| 20260503024033 | 39 | 111 | 0.0 | 0.0 | 0.00 | 0.00 | 0.00 | 70 | 1014.4 |
| 20260503023550 | 39 | 111 | 0.0 | 0.0 | 0.00 | 0.00 | 0.00 | 70 | 1014.4 |
| 20260503022536 | 39 | 111 | 0.0 | 0.0 | 0.00 | 0.00 | 0.00 | 68 | 1014.4 |
| 20260503022037 | 39 | 111 | 0.0 | 0.0 | 0.00 | 0.00 | 0.00 | 67 | 1014.4 |
| 20260503021555 | 39 | 111 | 0.0 | 0.0 | 0.00 | 0.00 | 0.00 | 66 | 1014.4 |
| 20260503020524 | 40 | 111 | 0.0 | 0.0 | 0.00 | 0.00 | 0.00 | 66 | 1014.4 |
| 20260503020037 | 40 | 111 | 0.0 | 0.0 | 0.00 | 0.00 | 0.00 | 66 | 1014.4 |
| 20260503015545 | 41 | 111 | 0.0 | 0.0 | 0.00 | 0.00 | 0.00 | 65 | 1014.3 |
| 20260503015043 | 41 | 111 | 0.0 | 0.0 | 0.00 | 0.00 | 0.00 | 65 | 1014.3 |
| 20260503014546 | 41 | 111 | 0.0 | 0.0 | 0.00 | 0.00 | 0.00 | 65 | 1014.3 |
| 20260503013532 | 42 | 111 | 0.0 | 0.0 | 0.00 | 0.00 | 0.00 | 64 | 1014.1 |
| 20260503013033 | 42 | 111 | 0.0 | 0.0 | 0.00 | 0.00 | 0.00 | 64 | 1014.1 |
| 20260503012606 | 43 | 111 | 0.0 | 0.0 | 0.00 | 0.00 | 0.00 | 64 | 1014.1 |
| 20260503012105 | 43 | 111 | 0.0 | 0.0 | 0.00 | 0.00 | 0.00 | 64 | 1014.1 |
| 20260503011047 | 43 | 111 | 0.0 | 0.0 | 0.00 | 0.00 | 0.00 | 63 | 1014.0 |
| 20260503010607 | 44 | 111 | 0.0 | 0.0 | 0.00 | 0.00 | 0.00 | 62 | 1014.0 |
| 20260503005523 | 44 | 111 | 0.0 | 0.0 | 0.00 | 0.00 | 0.00 | 61 | 1013.9 |
| 20260503005034 | 44 | 111 | 0.0 | 0.0 | 0.00 | 0.00 | 0.00 | 61 | 1013.9 |
| 20260503004546 | 44 | 111 | 0.0 | 0.0 | 0.00 | 0.00 | 0.00 | 60 | 1013.9 |
| 20260503004057 | 44 | 111 | 0.0 | 0.0 | 0.00 | 0.00 | 0.00 | 60 | 1013.9 |
| 20260503003608 | 44 | 111 | 0.0 | 1.0 | 0.00 | 0.00 | 0.00 | 59 | 1013.9 |
| 20260503003129 | 44 | 111 | 0.0 | 2.0 | 0.00 | 0.00 | 0.00 | 59 | 1013.9 |
| 20260503002518 | 44 | 111 | 0.0 | 2.0 | 0.00 | 0.00 | 0.00 | 58 | 1013.8 |
| 20260503002041 | 44 | 111 | 1.0 | 2.0 | 0.00 | 0.00 | 0.00 | 59 | 1013.8 |
| 20260503001548 | 44 | 111 | 0.0 | 3.0 | 0.00 | 0.00 | 0.00 | 59 | 1013.8 |
| 20260503001052 | 45 | 111 | 0.0 | 3.0 | 0.00 | 0.00 | 0.00 | 59 | 1013.8 |
| 20260503000037 | 45 | 111 | 0.0 | 0.0 | 0.00 | 0.00 | 0.00 | 59 | 1013.8 |
| 20260502235038 | 45 | 111 | 0.0 | 0.0 | 0.00 | 0.00 | 0.00 | 59 | 1013.8 |
| 20260502234542 | 45 | 111 | 0.0 | 0.0 | 0.00 | 0.00 | 0.00 | 59 | 1013.8 |
| 20260502234045 | 45 | 111 | 0.0 | 0.0 | 0.00 | 0.00 | 0.00 | 60 | 1013.7 |
| 20260502233532 | 45 | 111 | 0.0 | 0.0 | 0.00 | 0.00 | 0.00 | 59 | 1013.7 |
| 20260502233045 | 45 | 111 | 0.0 | 0.0 | 0.00 | 0.00 | 0.00 | 59 | 1013.7 |
| 20260502232551 | 45 | 111 | 0.0 | 0.0 | 0.00 | 0.00 | 0.00 | 59 | 1013.7 |
| 20260502231527 | 45 | 111 | 0.0 | 2.0 | 0.00 | 0.00 | 0.00 | 59 | 1013.7 |
| 20260502231031 | 45 | 111 | 0.0 | 3.0 | 0.00 | 0.00 | 0.00 | 59 | 1013.7 |
| 20260502230542 | 45 | 111 | 1.0 | 4.0 | 0.00 | 0.00 | 0.00 | 58 | 1013.7 |
| 20260502230050 | 45 | 111 | 2.0 | 4.0 | 0.00 | 0.00 | 0.00 | 58 | 1013.7 |
| 20260502225606 | 45 | 111 | 1.0 | 2.0 | 0.00 | 0.00 | 0.00 | 57 | 1013.6 |
| 20260502225115 | 46 | 111 | 1.0 | 3.0 | 0.00 | 0.00 | 0.00 | 56 | 1013.6 |
| 20260502224600 | 46 | 111 | 1.0 | 3.0 | 0.00 | 0.00 | 0.00 | 55 | 1013.6 |
| 20260502224110 | 46 | 111 | 1.0 | 4.0 | 0.00 | 0.00 | 0.00 | 54 | 1013.5 |
| 20260502223527 | 46 | 148 | 0.0 | 6.0 | 0.00 | 0.00 | 0.00 | 53 | 1013.5 |
| 20260502223106 | 46 | 265 | 3.0 | 7.0 | 0.00 | 0.00 | 0.00 | 52 | 1013.5 |
| 20260502222614 | 46 | 284 | 3.0 | 10.0 | 0.00 | 0.00 | 0.00 | 52 | 1013.4 |
| 20260502222036 | 46 | 292 | 3.0 | 10.0 | 0.00 | 0.00 | 0.00 | 52 | 1013.4 |
| 20260502221019 | 46 | 320 | 3.0 | 5.0 | 0.00 | 0.00 | 0.00 | 54 | 1013.4 |
| 20260502220540 | 46 | 338 | 2.0 | 5.0 | 0.00 | 0.00 | 0.00 | 55 | 1013.4 |
| 20260502220109 | 47 | 24 | 1.0 | 4.0 | 0.00 | 0.00 | 0.00 | 56 | 1013.4 |
| 20260502215525 | 46 | 32 | 0.0 | 2.0 | 0.00 | 0.00 | 0.00 | 56 | 1013.4 |
| 20260502215048 | 46 | 32 | 1.0 | 3.0 | 0.00 | 0.00 | 0.00 | 56 | 1013.4 |
| 20260502214548 | 46 | 23 | 1.0 | 5.0 | 0.00 | 0.00 | 0.00 | 56 | 1013.4 |
| 20260502214112 | 46 | 61 | 2.0 | 7.0 | 0.00 | 0.00 | 0.00 | 55 | 1013.3 |
| 20260502213611 | 46 | 43 | 2.0 | 7.0 | 0.00 | 0.00 | 0.00 | 55 | 1013.3 |
| 20260502212514 | 46 | 338 | 2.0 | 5.0 | 0.00 | 0.00 | 0.00 | 55 | 1013.3 |
| 20260502212044 | 46 | 331 | 2.0 | 5.0 | 0.00 | 0.00 | 0.00 | 55 | 1013.3 |
| 20260502211555 | 46 | 5 | 2.0 | 5.0 | 0.00 | 0.00 | 0.00 | 55 | 1013.3 |
| 20260502211111 | 46 | 67 | 2.0 | 3.0 | 0.00 | 0.00 | 0.00 | 55 | 1013.3 |
| 20260502210520 | 46 | 67 | 1.0 | 5.0 | 0.00 | 0.00 | 0.00 | 55 | 1013.3 |
| 20260502210043 | 46 | 59 | 3.0 | 5.0 | 0.00 | 0.00 | 0.00 | 55 | 1013.3 |
| 20260502205025 | 46 | 20 | 2.0 | 12.0 | 0.00 | 0.00 | 0.00 | 55 | 1013.3 |
| 20260502204540 | 46 | 22 | 6.0 | 12.0 | 0.00 | 0.00 | 0.00 | 53 | 1013.3 |
| 20260502204100 | 46 | 312 | 3.0 | 7.0 | 0.00 | 0.00 | 0.00 | 54 | 1013.3 |
| 20260502203601 | 46 | 355 | 1.0 | 9.0 | 0.00 | 0.00 | 0.00 | 53 | 1013.3 |
| 20260502202532 | 47 | 22 | 6.0 | 10.0 | 0.00 | 0.00 | 0.00 | 52 | 1013.3 |
| 20260502201533 | 47 | 320 | 5.0 | 8.0 | 0.00 | 0.00 | 0.00 | 53 | 1013.3 |
| 20260502201053 | 46 | 321 | 3.0 | 8.0 | 0.00 | 0.00 | 0.00 | 52 | 1013.3 |
| 20260502200556 | 46 | 306 | 4.0 | 7.0 | 0.00 | 0.00 | 0.00 | 52 | 1013.3 |
| 20260502195029 | 46 | 286 | 3.0 | 8.0 | 0.00 | 0.00 | 0.00 | 54 | 1013.6 |
| 20260502194020 | 46 | 5 | 4.0 | 12.0 | 0.00 | 0.00 | 0.00 | 54 | 1013.7 |
| 20260502193024 | 47 | 350 | 8.0 | 13.0 | 0.00 | 0.00 | 0.00 | 55 | 1013.7 |
| 20260502192527 | 46 | 36 | 2.0 | 12.0 | 0.00 | 0.00 | 0.00 | 55 | 1013.7 |
| 20260502191524 | 46 | 360 | 3.0 | 8.0 | 0.00 | 0.00 | 0.00 | 55 | 1013.7 |
| 20260502190541 | 46 | 360 | 4.0 | 10.0 | 0.00 | 0.00 | 0.00 | 55 | 1013.8 |
| 20260502190113 | 46 | 335 | 3.0 | 10.0 | 0.00 | 0.00 | 0.00 | 55 | 1013.8 |
| 20260502185023 | 47 | 333 | 5.0 | 11.0 | 0.00 | 0.00 | 0.00 | 56 | 1013.8 |
| 20260502183516 | 47 | 232 | 5.0 | 11.0 | 0.00 | 0.00 | 0.00 | 55 | 1013.8 |
| 20260502183042 | 47 | 347 | 3.0 | 12.0 | 0.00 | 0.00 | 0.00 | 56 | 1013.8 |
| 20260502182601 | 47 | 321 | 5.0 | 12.0 | 0.00 | 0.00 | 0.00 | 56 | 1013.9 |
| 20260502182104 | 46 | 319 | 7.0 | 11.0 | 0.00 | 0.00 | 0.00 | 56 | 1013.9 |
| 20260502181514 | 46 | 296 | 5.0 | 10.0 | 0.00 | 0.00 | 0.00 | 57 | 1013.9 |
| 20260502181050 | 46 | 306 | 4.0 | 12.0 | 0.00 | 0.00 | 0.00 | 58 | 1013.8 |
| 20260502164032 | 44 | 296 | 3.0 | 10.0 | 0.00 | 0.01 | 0.00 | 64 | 1014.3 |
| 20260502163038 | 45 | 306 | 5.0 | 11.0 | 0.00 | 0.01 | 0.00 | 65 | 1014.3 |
| 20260502162547 | 45 | 280 | 5.0 | 10.0 | 0.00 | 0.01 | 0.00 | 64 | 1014.4 |
| 20260502161527 | 45 | 297 | 4.0 | 9.0 | 0.00 | 0.01 | 0.00 | 65 | 1014.4 |
| 20260502161056 | 45 | 315 | 4.0 | 7.0 | 0.00 | 0.01 | 0.00 | 67 | 1014.4 |
| 20260502151531 | 45 | 288 | 5.0 | 10.0 | 0.00 | 0.01 | 0.00 | 71 | 1014.4 |
| 20260502151033 | 44 | 269 | 3.0 | 9.0 | 0.00 | 0.01 | 0.00 | 73 | 1014.4 |
| 20260502130529 | 39 | 12 | 3.0 | 8.0 | 0.00 | 0.02 | 0.00 | 81 | 1013.9 |
| 20260502123551 | 37 | 269 | 3.0 | 8.0 | 0.00 | 0.02 | 0.00 | 83 | 1013.9 |
| 20260502123114 | 37 | 349 | 4.0 | 8.0 | 0.00 | 0.02 | 0.00 | 83 | 1013.9 |
| 20260502122028 | 36 | 333 | 4.0 | 8.0 | 0.00 | 0.02 | 0.00 | 84 | 1013.7 |
| 20260502121602 | 36 | 293 | 3.0 | 7.0 | 0.00 | 0.02 | 0.00 | 84 | 1013.7 |
| 20260502120532 | 35 | 333 | 3.0 | 6.0 | 0.00 | 0.02 | 0.00 | 85 | 1013.6 |
| 20260502115042 | 34 | 336 | 2.0 | 7.0 | 0.00 | 0.02 | 0.00 | 86 | 1013.4 |
| 20260502114546 | 34 | 323 | 3.0 | 7.0 | 0.00 | 0.02 | 0.00 | 87 | 1013.4 |
| 20260502114104 | 34 | 300 | 4.0 | 6.0 | 0.00 | 0.02 | 0.00 | 88 | 1013.4 |
| 20260502113523 | 34 | 314 | 2.0 | 5.0 | 0.00 | 0.02 | 0.00 | 88 | 1013.4 |
| 20260502113046 | 33 | 315 | 3.0 | 5.0 | 0.00 | 0.02 | 0.00 | 89 | 1013.4 |
| 20260502112036 | 33 | 306 | 2.0 | 3.0 | 0.00 | 0.02 | 0.00 | 89 | 1013.3 |
| 20260502111548 | 32 | 200 | 1.0 | 2.0 | 0.00 | 0.02 | 0.00 | 89 | 1013.3 |
| 20260502111054 | 32 | 200 | 0.0 | 0.0 | 0.00 | 0.02 | 0.00 | 89 | 1013.3 |
| 20260502110043 | 32 | 200 | 0.0 | 0.0 | 0.00 | 0.02 | 0.00 | 89 | 1013.3 |
| 20260502105022 | 32 | 200 | 0.0 | 0.0 | 0.00 | 0.02 | 0.00 | 89 | 1013.3 |
| 20260502104539 | 32 | 200 | 0.0 | 0.0 | 0.00 | 0.02 | 0.00 | 89 | 1013.3 |
| 20260502103538 | 32 | 200 | 0.0 | 0.0 | 0.00 | 0.02 | 0.00 | 88 | 1013.3 |
| 20260502103025 | 32 | 200 | 0.0 | 0.0 | 0.00 | 0.02 | 0.00 | 88 | 1013.3 |
| 20260502102605 | 32 | 200 | 0.0 | 0.0 | 0.00 | 0.02 | 0.00 | 88 | 1013.3 |
| 20260502102054 | 32 | 200 | 0.0 | 0.0 | 0.00 | 0.02 | 0.00 | 89 | 1013.3 |
| 20260502101550 | 32 | 200 | 0.0 | 0.0 | 0.00 | 0.02 | 0.00 | 89 | 1013.3 |
| 20260502101046 | 32 | 200 | 0.0 | 0.0 | 0.00 | 0.02 | 0.00 | 89 | 1013.3 |
| 20260502091521 | 33 | 200 | 0.0 | 0.0 | 0.00 | 0.02 | 0.00 | 89 | 1013.3 |
| 20260502091056 | 33 | 200 | 0.0 | 0.0 | 0.00 | 0.02 | 0.00 | 89 | 1013.2 |
| 20260502090554 | 33 | 200 | 0.0 | 0.0 | 0.00 | 0.02 | 0.00 | 89 | 1013.2 |
| 20260502071022 | 34 | 200 | 0.0 | 0.0 | 0.00 | 0.02 | 0.00 | 88 | 1013.2 |
| 20260502070549 | 35 | 200 | 0.0 | 0.0 | 0.00 | 0.02 | 0.00 | 88 | 1013.2 |
| 20260502070047 | 35 | 200 | 0.0 | 0.0 | 0.00 | 0.02 | 0.00 | 88 | 1013.2 |
| 20260502065028 | 35 | 200 | 0.0 | 0.0 | 0.00 | 0.02 | 0.00 | 88 | 1013.2 |
| 20260502064600 | 35 | 200 | 0.0 | 0.0 | 0.00 | 0.02 | 0.00 | 88 | 1013.2 |
| 20260502064104 | 35 | 200 | 0.0 | 0.0 | 0.00 | 0.02 | 0.00 | 88 | 1013.3 |
| 20260502063609 | 36 | 200 | 0.0 | 0.0 | 0.00 | 0.02 | 0.00 | 88 | 1013.3 |
| 20260502062538 | 36 | 200 | 0.0 | 0.0 | 0.00 | 0.02 | 0.00 | 88 | 1013.3 |
| 20260502062056 | 36 | 200 | 0.0 | 0.0 | 0.00 | 0.02 | 0.00 | 88 | 1013.3 |
| 20260502061025 | 36 | 200 | 0.0 | 0.0 | 0.00 | 0.02 | 0.00 | 88 | 1013.3 |
| 20260502060604 | 36 | 200 | 0.0 | 0.0 | 0.00 | 0.02 | 0.00 | 88 | 1013.3 |
| 20260502060054 | 37 | 200 | 0.0 | 0.0 | 0.00 | 0.02 | 0.00 | 88 | 1013.3 |
| 20260502055525 | 37 | 200 | 0.0 | 0.0 | 0.00 | 0.02 | 0.00 | 88 | 1013.3 |
| 20260502055049 | 37 | 200 | 0.0 | 0.0 | 0.00 | 0.02 | 0.00 | 88 | 1013.3 |
| 20260502054532 | 37 | 200 | 0.0 | 0.0 | 0.00 | 0.02 | 0.00 | 88 | 1013.3 |
| 20260502054038 | 37 | 200 | 0.0 | 0.0 | 0.00 | 0.02 | 0.00 | 88 | 1013.5 |
| 20260502053523 | 37 | 200 | 0.0 | 0.0 | 0.00 | 0.02 | 0.00 | 88 | 1013.5 |
| 20260502053031 | 38 | 200 | 0.0 | 0.0 | 0.00 | 0.02 | 0.00 | 88 | 1013.5 |
| 20260502052546 | 38 | 200 | 0.0 | 0.0 | 0.00 | 0.02 | 0.00 | 88 | 1013.4 |
| 20260502052044 | 38 | 200 | 0.0 | 0.0 | 0.00 | 0.02 | 0.00 | 88 | 1013.4 |
| 20260502051536 | 37 | 200 | 0.0 | 3.0 | 0.00 | 0.02 | 0.00 | 88 | 1013.4 |
| 20260502051039 | 37 | 200 | 1.0 | 3.0 | 0.00 | 0.02 | 0.00 | 88 | 1013.5 |
| 20260502050529 | 37 | 74 | 0.0 | 0.0 | 0.00 | 0.02 | 0.00 | 87 | 1013.5 |
| 20260502050047 | 38 | 74 | 0.0 | 0.0 | 0.00 | 0.02 | 0.00 | 87 | 1013.5 |
| 20260502045542 | 38 | 74 | 0.0 | 0.0 | 0.00 | 0.02 | 0.00 | 87 | 1013.6 |
| 20260502045036 | 38 | 74 | 0.0 | 0.0 | 0.00 | 0.02 | 0.00 | 87 | 1013.6 |
| 20260502044546 | 38 | 74 | 0.0 | 0.0 | 0.00 | 0.02 | 0.00 | 87 | 1013.6 |
| 20260502044032 | 38 | 74 | 0.0 | 0.0 | 0.00 | 0.02 | 0.00 | 87 | 1013.5 |
| 20260502043546 | 38 | 74 | 0.0 | 0.0 | 0.00 | 0.02 | 0.00 | 87 | 1013.5 |
| 20260502043105 | 38 | 74 | 0.0 | 0.0 | 0.00 | 0.02 | 0.00 | 86 | 1013.5 |
| 20260502042557 | 38 | 74 | 0.0 | 0.0 | 0.00 | 0.02 | 0.00 | 86 | 1013.6 |
| 20260502042027 | 38 | 74 | 0.0 | 0.0 | 0.00 | 0.02 | 0.00 | 86 | 1013.6 |
| 20260502041542 | 38 | 74 | 0.0 | 0.0 | 0.00 | 0.02 | 0.00 | 86 | 1013.6 |
| 20260502041044 | 38 | 74 | 0.0 | 0.0 | 0.00 | 0.02 | 0.00 | 86 | 1013.4 |
| 20260502040529 | 38 | 74 | 0.0 | 0.0 | 0.00 | 0.02 | 0.00 | 86 | 1013.4 |
| 20260502040052 | 38 | 74 | 0.0 | 0.0 | 0.00 | 0.02 | 0.00 | 86 | 1013.4 |
| 20260502035535 | 38 | 74 | 0.0 | 0.0 | 0.00 | 0.02 | 0.02 | 86 | 1013.3 |
| 20260502035049 | 38 | 74 | 0.0 | 0.0 | 0.00 | 0.02 | 0.02 | 85 | 1013.3 |
| 20260502034546 | 38 | 74 | 0.0 | 0.0 | 0.00 | 0.02 | 0.02 | 86 | 1013.3 |
| 20260502034040 | 38 | 74 | 0.0 | 0.0 | 0.00 | 0.02 | 0.02 | 86 | 1013.4 |
| 20260502033544 | 38 | 74 | 0.0 | 0.0 | 0.00 | 0.02 | 0.02 | 86 | 1013.4 |
| 20260502033054 | 38 | 74 | 0.0 | 0.0 | 0.00 | 0.02 | 0.02 | 85 | 1013.4 |
| 20260502032610 | 39 | 74 | 0.0 | 0.0 | 0.00 | 0.02 | 0.02 | 85 | 1013.4 |
| 20260502032045 | 39 | 74 | 0.0 | 0.0 | 0.00 | 0.02 | 0.02 | 85 | 1013.4 |
| 20260502031020 | 39 | 74 | 0.0 | 0.0 | 0.00 | 0.02 | 0.02 | 84 | 1013.4 |